Showing default

FLOCK 4G 4, 62659

Orbit data source: Space-Track

FLOCK 4G 4, 62659 is a payload satellite owned by Planet (US) in SSO that was launched on Tue, 14 Jan 2025 UTC via an FALCON 9 launch vehicle from the Air Force Western Test Range (AFWTR). Payload-class satellites include a variety of spacecraft equipped with specific instruments for various scientific and technological missions. These include communications satellites like Starlink; space stations such as the ISS; scientific satellites like the Hubble; Earth observation satellites from companies like Planet Labs, Umbra, and HawkEye 360; GPS; miniature CubeSats for education and research; and military/defense satellites.

Loading next visibility...
Identifier
62659, 2025-009BC
Orbit
SSO
Country
Flag of USUS
Related business
Manufacturer
Planet
Mission
Operational Commercial Imaging
Bus & Motor
CUBESAT 3U, Unknown motor
Mass
5.7 kg wet, 5.7 kg dry
Launch date (UTC)
2025-01-14 (9 months ago)
Launch vehicle
FALCON 9
Launch site
Air Force Western Test Range (AFWTR)
Object type
Payload
Rocket body
Debris
Shape & HBR
Box + 2 Pan, 1.0 m
Radar Cross Section
0.072 m², Medium (>0.1 m² and < 1m²)

Expand to show TLE details & history
Last TLE update: 13 hours ago

TLE from 13 hours ago
0 FLOCK 4G 4
1 62659U 25009BC  25300.69072691  .00011575  00000-0  49132-3 0  9995
2 62659  97.4166  19.0873 0003804  76.6017 283.5644 15.23239820101046
Epoch: 2025-10-27T16:34Z
TLE epoch observation values (Epoch: 2025-10-27T16:34:38.805Z)
Latitude
0.00004°
Longitude
94.13666°
Altitude
498.558 km
Speed
7.616 km/s
True Right ascension
01h 16m 20s
True Declination
0° 00' 00"
Sunlit
Object was in full shadow at epoch
Visualization orbit readout
Latitude
Unknown
Longitude
Unknown
Altitude
Unknown
Speed
Unknown
Apparent Right ascension
Unknown
Apparent Declination
Unknown
Sunlit
N/A
Visualization observer readout
Local Sidereal Time
01:27:28
Azimuth
Unknown
Elevation
Unknown
Doppler factor
Unknown
Orbital elements
Apogee altitude
495.652 km
Perigee altitude
490.424 km
Semi-major axis
6,871.175 km
Eccentricity
0.00038
Inclination
97.4166°
RAAN
19.0873°
Arg. of periapsis
76.6017°
True anomaly
283.52202°
Mean anomaly
283.5644°
Eccentric anomaly
283.54321°
Mean motion
3.81063 °/min
Orbital period
94.47 mins
BSTAR
0.00049132
Loading maneuver chart data...
Computing Atmospheric mass density...
Loading historical data...
Loading historical data...
Loading historical data...
Loading historical data...
Loading historical data...
Loading historical data...
Loading historical data...

Documentation

Showing up to 5 results
|